User: anonymous   Login
Location: Unspecified
(0.0000°N, 0.0000°E)
Time: 07:25:03
(UTC+00:00)
Language:

PCSat - Orbit

View from above orbital plane
View from above orbital plane
View from above satellite
View from above satellite

Ground track
Ground track

The orbit data is extracted from the following two-line orbital elements,

1 26931U 01043C   20270.19262793 -.00000017  00000-0  25269-4 0  9996
2 26931  67.0499 242.4222 0006599 276.1436  83.8914 14.30588308991556
Epoch (UTC): 26 September 2020 04:37:23
Eccentricity: 0.0006599
inclination: 67.0499°
perigee height: 785 km
apogee height: 794 km
right ascension of ascending node: 242.4222°
argument of perigee: 276.1436°
revolutions per day: 14.30588308
mean anomaly at epoch: 83.8914°
orbit number at epoch: 99155

The dashed part of the orbit path shows where the satellite is in the earth's shadow,  

DLR